| time (UTC) | temp F | wind direction | speed MPH | gust MPH | rain 1hr in | rain 24hr in | rain mn in | humidity % | barometer mb |
| 20260507082023 | 68 | 30 | 3.0 | 6.0 | 0.00 | 0.02 | 0.00 | 84 | 1014.6 |
| 20260507081526 | 68 | 355 | 2.0 | 7.0 | 0.00 | 0.02 | 0.00 | 84 | 1014.5 |
| 20260507081023 | 68 | 21 | 1.0 | 7.0 | 0.00 | 0.02 | 0.00 | 84 | 1014.6 |
| 20260507080523 | 68 | 350 | 1.0 | 9.0 | 0.00 | 0.02 | 0.00 | 84 | 1014.6 |
| 20260507080022 | 68 | 346 | 2.0 | 6.0 | 0.00 | 0.02 | 0.00 | 84 | 1014.5 |
| 20260507075522 | 68 | 355 | 1.0 | 9.0 | 0.00 | 0.02 | 0.00 | 84 | 1014.5 |
| 20260507075024 | 68 | 5 | 1.0 | 10.0 | 0.00 | 0.02 | 0.00 | 84 | 1014.6 |
| 20260507074522 | 68 | 44 | 1.0 | 9.0 | 0.00 | 0.02 | 0.00 | 84 | 1014.7 |
| 20260507074021 | 68 | 28 | 3.0 | 9.0 | 0.00 | 0.02 | 0.00 | 84 | 1014.7 |
| 20260507073521 | 68 | 355 | 3.0 | 13.0 | 0.00 | 0.02 | 0.00 | 83 | 1014.7 |
| 20260507073021 | 68 | 24 | 5.0 | 11.0 | 0.00 | 0.02 | 0.00 | 83 | 1014.8 |
| 20260507072522 | 68 | 13 | 4.0 | 10.0 | 0.00 | 0.02 | 0.00 | 83 | 1014.7 |
| 20260507072019 | 68 | 319 | 4.0 | 10.0 | 0.00 | 0.02 | 0.00 | 83 | 1014.8 |
| 20260507071519 | 68 | 340 | 5.0 | 10.0 | 0.00 | 0.02 | 0.00 | 83 | 1014.9 |
| 20260507071018 | 68 | 319 | 3.0 | 12.0 | 0.00 | 0.02 | 0.00 | 83 | 1015.2 |
| 20260507070518 | 68 | 336 | 5.0 | 12.0 | 0.00 | 0.02 | 0.00 | 83 | 1015.1 |
| 20260507070020 | 68 | 18 | 4.0 | 11.0 | 0.00 | 0.02 | 0.00 | 83 | 1014.9 |
| 20260507065516 | 68 | 355 | 4.0 | 12.0 | 0.00 | 0.02 | 0.00 | 83 | 1014.9 |
| 20260507065016 | 68 | 331 | 5.0 | 12.0 | 0.00 | 0.02 | 0.00 | 83 | 1015.1 |
| 20260507064515 | 68 | 5 | 4.0 | 11.0 | 0.00 | 0.02 | 0.00 | 83 | 1015.0 |
| 20260507064014 | 69 | 355 | 4.0 | 9.0 | 0.00 | 0.02 | 0.00 | 83 | 1015.0 |
| 20260507063514 | 69 | 337 | 3.0 | 7.0 | 0.00 | 0.02 | 0.00 | 83 | 1014.9 |
| 20260507063014 | 69 | 338 | 1.0 | 7.0 | 0.00 | 0.02 | 0.00 | 83 | 1015.0 |
| 20260507062513 | 69 | 60 | 1.0 | 8.0 | 0.00 | 0.02 | 0.00 | 83 | 1015.1 |
| 20260507062012 | 69 | 351 | 4.0 | 10.0 | 0.00 | 0.02 | 0.00 | 82 | 1014.7 |
| 20260507061510 | 69 | 350 | 4.0 | 11.0 | 0.00 | 0.02 | 0.00 | 82 | 1014.7 |
| 20260507061012 | 69 | 5 | 6.0 | 11.0 | 0.00 | 0.02 | 0.00 | 82 | 1014.7 |
| 20260507060510 | 69 | 53 | 4.0 | 11.0 | 0.00 | 0.02 | 0.00 | 82 | 1014.7 |
| 20260507060009 | 69 | 338 | 4.0 | 11.0 | 0.00 | 0.02 | 0.00 | 82 | 1014.4 |
| 20260507055512 | 70 | 348 | 5.0 | 11.0 | 0.00 | 0.02 | 0.00 | 82 | 1014.5 |
| 20260507055010 | 70 | 350 | 4.0 | 9.0 | 0.00 | 0.02 | 0.00 | 82 | 1014.6 |
| 20260507054507 | 70 | 331 | 4.0 | 10.0 | 0.00 | 0.02 | 0.00 | 82 | 1014.6 |
| 20260507054005 | 70 | 5 | 3.0 | 11.0 | 0.00 | 0.02 | 0.00 | 82 | 1014.4 |
| 20260507053504 | 70 | 350 | 6.0 | 10.0 | 0.00 | 0.02 | 0.00 | 82 | 1014.3 |
| 20260507053004 | 70 | 18 | 4.0 | 11.0 | 0.00 | 0.02 | 0.00 | 82 | 1014.4 |
| 20260507052503 | 71 | 329 | 5.0 | 11.0 | 0.00 | 0.02 | 0.00 | 82 | 1014.3 |
| 20260507052002 | 71 | 330 | 3.0 | 11.0 | 0.00 | 0.02 | 0.00 | 82 | 1014.4 |
| 20260507051502 | 71 | 41 | 3.0 | 11.0 | 0.00 | 0.02 | 0.00 | 82 | 1014.4 |
| 20260507051100 | 71 | 30 | 3.0 | 11.0 | 0.00 | 0.02 | 0.00 | 82 | 1014.5 |
| 20260507050559 | 71 | 348 | 4.0 | 9.0 | 0.00 | 0.02 | 0.00 | 82 | 1014.5 |
| 20260507050059 | 71 | 348 | 3.0 | 11.0 | 0.00 | 0.02 | 0.00 | 82 | 1014.5 |
| 20260507045558 | 71 | 9 | 4.0 | 11.0 | 0.00 | 0.02 | 0.02 | 82 | 1014.4 |
| 20260507045058 | 71 | 342 | 5.0 | 10.0 | 0.00 | 0.02 | 0.02 | 82 | 1014.4 |
| 20260507044601 | 71 | 345 | 3.0 | 9.0 | 0.00 | 0.02 | 0.02 | 81 | 1014.5 |
| 20260507044056 | 71 | 339 | 3.0 | 10.0 | 0.00 | 0.02 | 0.02 | 81 | 1014.5 |
| 20260507043556 | 71 | 355 | 3.0 | 9.0 | 0.00 | 0.02 | 0.02 | 81 | 1014.3 |
| 20260507043057 | 72 | 345 | 4.0 | 9.0 | 0.00 | 0.02 | 0.02 | 81 | 1014.2 |
| 20260507042554 | 72 | 19 | 3.0 | 8.0 | 0.00 | 0.02 | 0.02 | 82 | 1014.3 |
| 20260507042053 | 72 | 17 | 2.0 | 10.0 | 0.00 | 0.02 | 0.02 | 82 | 1014.3 |
| 20260507041552 | 72 | 41 | 4.0 | 10.0 | 0.00 | 0.02 | 0.02 | 81 | 1014.5 |
| 20260507041052 | 72 | 350 | 5.0 | 10.0 | 0.00 | 0.02 | 0.02 | 81 | 1014.5 |
| 20260507040550 | 72 | 26 | 4.0 | 11.0 | 0.00 | 0.02 | 0.02 | 81 | 1014.5 |
| 20260507040050 | 72 | 35 | 3.0 | 11.0 | 0.00 | 0.02 | 0.02 | 82 | 1014.4 |
| 20260507035549 | 73 | 13 | 5.0 | 11.0 | 0.00 | 0.02 | 0.02 | 82 | 1014.4 |
| 20260507035048 | 73 | 328 | 4.0 | 10.0 | 0.00 | 0.02 | 0.02 | 81 | 1014.2 |
| 20260507034550 | 73 | 360 | 3.0 | 12.0 | 0.00 | 0.02 | 0.02 | 82 | 1014.2 |
| 20260507034046 | 73 | 327 | 4.0 | 9.0 | 0.00 | 0.02 | 0.02 | 81 | 1014.3 |
| 20260507033546 | 73 | 20 | 3.0 | 10.0 | 0.00 | 0.02 | 0.02 | 82 | 1014.1 |
| 20260507033044 | 73 | 329 | 3.0 | 10.0 | 0.00 | 0.02 | 0.02 | 82 | 1014.0 |
| 20260507032543 | 74 | 355 | 5.0 | 10.0 | 0.00 | 0.02 | 0.02 | 82 | 1014.0 |
| 20260507032041 | 74 | 51 | 3.0 | 9.0 | 0.00 | 0.02 | 0.02 | 82 | 1013.8 |
| 20260507031541 | 74 | 339 | 2.0 | 10.0 | 0.00 | 0.02 | 0.02 | 82 | 1013.7 |
| 20260507031040 | 74 | 17 | 3.0 | 10.0 | 0.00 | 0.02 | 0.02 | 82 | 1013.5 |
| 20260507030541 | 74 | 335 | 5.0 | 11.0 | 0.00 | 0.02 | 0.02 | 82 | 1013.4 |
| 20260507030037 | 74 | 13 | 3.0 | 10.0 | 0.00 | 0.02 | 0.02 | 81 | 1013.3 |
| 20260507025536 | 75 | 349 | 5.0 | 11.0 | 0.00 | 0.02 | 0.02 | 82 | 1013.4 |
| 20260507025035 | 75 | 327 | 3.0 | 11.0 | 0.00 | 0.02 | 0.02 | 82 | 1013.3 |
| 20260507024539 | 75 | 350 | 5.0 | 9.0 | 0.00 | 0.02 | 0.02 | 82 | 1013.2 |
| 20260507024033 | 75 | 321 | 3.0 | 13.0 | 0.00 | 0.02 | 0.02 | 82 | 1013.1 |
| 20260507023532 | 76 | 325 | 3.0 | 13.0 | 0.00 | 0.02 | 0.02 | 82 | 1012.9 |
| 20260507023030 | 76 | 334 | 7.0 | 12.0 | 0.00 | 0.02 | 0.02 | 82 | 1012.8 |
| 20260507022532 | 76 | 355 | 3.0 | 12.0 | 0.00 | 0.02 | 0.02 | 83 | 1012.7 |
| 20260507022031 | 76 | 324 | 4.0 | 12.0 | 0.00 | 0.02 | 0.02 | 83 | 1012.5 |
| 20260507021531 | 76 | 328 | 2.0 | 7.0 | 0.00 | 0.02 | 0.02 | 83 | 1012.4 |
| 20260507021029 | 76 | 285 | 1.0 | 11.0 | 0.00 | 0.02 | 0.02 | 83 | 1012.4 |
| 20260507020529 | 76 | 360 | 3.0 | 11.0 | 0.00 | 0.02 | 0.02 | 83 | 1012.3 |
| 20260507020041 | 77 | 341 | 4.0 | 9.0 | 0.00 | 0.02 | 0.02 | 83 | 1012.3 |
| 20260507015532 | 77 | 48 | 2.0 | 10.0 | 0.00 | 0.02 | 0.02 | 83 | 1012.2 |
| 20260507015029 | 77 | 345 | 4.0 | 10.0 | 0.00 | 0.02 | 0.02 | 83 | 1012.1 |
| 20260507014627 | 77 | 319 | 2.0 | 11.0 | 0.00 | 0.02 | 0.02 | 83 | 1011.9 |
| 20260507014030 | 77 | 355 | 3.0 | 10.0 | 0.00 | 0.02 | 0.02 | 83 | 1012.0 |
| 20260507013526 | 77 | 288 | 2.0 | 11.0 | 0.00 | 0.02 | 0.02 | 83 | 1012.0 |
| 20260507013030 | 77 | 49 | 2.0 | 8.0 | 0.00 | 0.02 | 0.02 | 82 | 1011.8 |
| 20260507012526 | 78 | 5 | 1.0 | 8.0 | 0.00 | 0.02 | 0.02 | 82 | 1011.8 |
| 20260507012026 | 78 | 355 | 3.0 | 9.0 | 0.00 | 0.02 | 0.02 | 82 | 1011.6 |
| 20260507011526 | 78 | 36 | 2.0 | 12.0 | 0.00 | 0.02 | 0.02 | 82 | 1011.4 |
| 20260507011025 | 79 | 355 | 4.0 | 12.0 | 0.00 | 0.02 | 0.02 | 81 | 1011.4 |
| 20260507010525 | 80 | 294 | 4.0 | 9.0 | 0.00 | 0.02 | 0.02 | 81 | 1011.2 |
| 20260507010028 | 81 | 324 | 1.0 | 9.0 | 0.00 | 0.02 | 0.02 | 81 | 1011.1 |
| 20260507005525 | 82 | 281 | 1.0 | 7.0 | 0.00 | 0.02 | 0.02 | 85 | 1011.0 |
| 20260507005026 | 82 | 156 | 0.0 | 6.0 | 0.00 | 0.02 | 0.02 | 85 | 1010.4 |
| 20260507004530 | 82 | 167 | 3.0 | 6.0 | 0.00 | 0.02 | 0.02 | 85 | 1010.3 |
| 20260507004024 | 82 | 163 | 1.0 | 5.0 | 0.00 | 0.02 | 0.02 | 84 | 1010.4 |
| 20260507003524 | 82 | 156 | 0.0 | 7.0 | 0.00 | 0.02 | 0.02 | 84 | 1010.3 |
| 20260507003028 | 83 | 159 | 1.0 | 7.0 | 0.00 | 0.02 | 0.02 | 84 | 1010.2 |
| 20260507002523 | 83 | 123 | 2.0 | 5.0 | 0.00 | 0.02 | 0.02 | 84 | 1010.1 |
| 20260507002024 | 83 | 180 | 1.0 | 9.0 | 0.00 | 0.02 | 0.02 | 84 | 1010.2 |
| 20260507001534 | 83 | 173 | 2.0 | 9.0 | 0.00 | 0.02 | 0.02 | 84 | 1010.1 |
| 20260507001023 | 83 | 156 | 3.0 | 9.0 | 0.00 | 0.02 | 0.02 | 83 | 1010.1 |
| 20260507000523 | 83 | 189 | 1.0 | 5.0 | 0.00 | 0.02 | 0.02 | 83 | 1010.2 |
| 20260507000023 | 83 | 153 | 1.0 | 7.0 | 0.00 | 0.02 | 0.02 | 83 | 1009.9 |
| 20260506235524 | 84 | 174 | 1.0 | 7.0 | 0.00 | 0.02 | 0.02 | 83 | 1009.9 |
| 20260506235023 | 84 | 154 | 3.0 | 10.0 | 0.00 | 0.02 | 0.02 | 83 | 1010.0 |
| 20260506234523 | 84 | 156 | 4.0 | 10.0 | 0.00 | 0.02 | 0.02 | 82 | 1010.1 |
| 20260506234023 | 84 | 165 | 3.0 | 9.0 | 0.00 | 0.02 | 0.02 | 81 | 1010.0 |
| 20260506233522 | 85 | 183 | 5.0 | 9.0 | 0.00 | 0.02 | 0.02 | 81 | 1010.0 |
| 20260506233022 | 85 | 184 | 3.0 | 5.0 | 0.00 | 0.02 | 0.02 | 80 | 1009.8 |
| 20260506232521 | 85 | 141 | 2.0 | 7.0 | 0.00 | 0.02 | 0.02 | 81 | 1009.9 |
| 20260506232022 | 85 | 144 | 2.0 | 7.0 | 0.00 | 0.02 | 0.02 | 81 | 1009.9 |
| 20260506231521 | 85 | 180 | 4.0 | 8.0 | 0.00 | 0.02 | 0.02 | 80 | 1009.8 |
| 20260506231021 | 85 | 142 | 3.0 | 7.0 | 0.00 | 0.02 | 0.02 | 80 | 1009.9 |
| 20260506230524 | 85 | 186 | 4.0 | 9.0 | 0.00 | 0.02 | 0.02 | 80 | 1009.8 |
| 20260506230020 | 85 | 163 | 3.0 | 9.0 | 0.00 | 0.02 | 0.02 | 80 | 1009.8 |
| 20260506225521 | 85 | 165 | 3.0 | 6.0 | 0.00 | 0.02 | 0.02 | 79 | 1009.9 |
| 20260506225020 | 85 | 168 | 1.0 | 4.0 | 0.00 | 0.02 | 0.02 | 79 | 1009.8 |
| 20260506224520 | 85 | 185 | 1.0 | 6.0 | 0.00 | 0.02 | 0.02 | 78 | 1009.9 |
| 20260506224019 | 85 | 168 | 2.0 | 7.0 | 0.00 | 0.02 | 0.02 | 78 | 1009.8 |
| 20260506223519 | 85 | 159 | 0.0 | 5.0 | 0.00 | 0.02 | 0.02 | 79 | 1009.8 |
| 20260506223019 | 85 | 153 | 2.0 | 6.0 | 0.00 | 0.02 | 0.02 | 79 | 1009.7 |
| 20260506222522 | 85 | 175 | 0.0 | 5.0 | 0.00 | 0.02 | 0.02 | 79 | 1009.6 |
| 20260506222018 | 85 | 95 | 1.0 | 5.0 | 0.00 | 0.02 | 0.02 | 79 | 1009.6 |
| 20260506221518 | 85 | 161 | 2.0 | 6.0 | 0.00 | 0.02 | 0.02 | 78 | 1009.5 |
| 20260506221018 | 86 | 148 | 2.0 | 8.0 | 0.00 | 0.02 | 0.02 | 77 | 1009.5 |
| 20260506220518 | 86 | 178 | 3.0 | 8.0 | 0.00 | 0.02 | 0.02 | 77 | 1009.6 |
| 20260506220018 | 86 | 173 | 2.0 | 6.0 | 0.00 | 0.02 | 0.02 | 77 | 1009.6 |
| 20260506215517 | 86 | 168 | 1.0 | 7.0 | 0.00 | 0.02 | 0.02 | 76 | 1009.6 |
| 20260506215017 | 86 | 171 | 2.0 | 8.0 | 0.00 | 0.02 | 0.02 | 75 | 1009.5 |
| 20260506214516 | 86 | 232 | 1.0 | 8.0 | 0.00 | 0.02 | 0.02 | 75 | 1009.4 |
| 20260506214020 | 86 | 204 | 1.0 | 9.0 | 0.00 | 0.02 | 0.02 | 75 | 1009.5 |
| 20260506213516 | 86 | 233 | 1.0 | 9.0 | 0.00 | 0.02 | 0.02 | 75 | 1009.5 |
| 20260506213015 | 87 | 173 | 5.0 | 9.0 | 0.00 | 0.02 | 0.02 | 75 | 1009.5 |
| 20260506212515 | 87 | 193 | 3.0 | 6.0 | 0.00 | 0.02 | 0.02 | 76 | 1009.4 |
| 20260506212016 | 86 | 188 | 2.0 | 8.0 | 0.00 | 0.02 | 0.02 | 77 | 1009.5 |
| 20260506211513 | 86 | 167 | 3.0 | 8.0 | 0.00 | 0.02 | 0.02 | 76 | 1009.7 |
| 20260506211013 | 86 | 144 | 5.0 | 8.0 | 0.00 | 0.02 | 0.02 | 76 | 1009.8 |
| 20260506210513 | 86 | 165 | 2.0 | 7.0 | 0.00 | 0.02 | 0.02 | 76 | 1009.8 |
| 20260506210019 | 86 | 208 | 2.0 | 9.0 | 0.00 | 0.02 | 0.02 | 77 | 1009.9 |
| 20260506205512 | 86 | 192 | 2.0 | 6.0 | 0.00 | 0.02 | 0.02 | 76 | 1009.9 |
| 20260506205014 | 86 | 175 | 2.0 | 8.0 | 0.00 | 0.02 | 0.02 | 77 | 1009.9 |
| 20260506204513 | 85 | 222 | 3.0 | 9.0 | 0.00 | 0.02 | 0.02 | 78 | 1009.9 |
| 20260506204010 | 85 | 182 | 3.0 | 8.0 | 0.00 | 0.02 | 0.02 | 78 | 1009.9 |
| 20260506203513 | 85 | 199 | 4.0 | 9.0 | 0.00 | 0.02 | 0.02 | 79 | 1010.0 |
| 20260506203009 | 85 | 188 | 5.0 | 9.0 | 0.00 | 0.02 | 0.02 | 78 | 1009.9 |
| 20260506202509 | 85 | 148 | 3.0 | 12.0 | 0.00 | 0.02 | 0.02 | 79 | 1009.9 |
| 20260506202011 | 85 | 186 | 4.0 | 12.0 | 0.00 | 0.02 | 0.02 | 78 | 1010.1 |
| 20260506201509 | 85 | 190 | 4.0 | 10.0 | 0.00 | 0.02 | 0.02 | 79 | 1010.0 |
| 20260506201009 | 85 | 190 | 3.0 | 8.0 | 0.00 | 0.02 | 0.02 | 79 | 1010.2 |
| 20260506200513 | 85 | 183 | 4.0 | 15.0 | 0.00 | 0.02 | 0.02 | 79 | 1010.2 |
| 20260506200008 | 86 | 199 | 5.0 | 15.0 | 0.00 | 0.02 | 0.02 | 78 | 1010.3 |
| 20260506195507 | 85 | 215 | 2.0 | 9.0 | 0.00 | 0.02 | 0.02 | 78 | 1010.3 |
| 20260506195007 | 85 | 164 | 1.0 | 8.0 | 0.00 | 0.02 | 0.02 | 80 | 1010.4 |
| 20260506194531 | 85 | 192 | 2.0 | 8.0 | 0.00 | 0.02 | 0.02 | 80 | 1010.5 |
| 20260506194006 | 85 | 159 | 4.0 | 9.0 | 0.00 | 0.02 | 0.02 | 79 | 1010.4 |
| 20260506193505 | 85 | 183 | 3.0 | 9.0 | 0.00 | 0.02 | 0.02 | 79 | 1010.5 |
| 20260506193007 | 85 | 182 | 4.0 | 9.0 | 0.00 | 0.02 | 0.02 | 79 | 1010.4 |
| 20260506192505 | 85 | 170 | 3.0 | 7.0 | 0.00 | 0.02 | 0.02 | 78 | 1010.6 |
| 20260506192005 | 85 | 175 | 2.0 | 7.0 | 0.00 | 0.02 | 0.02 | 79 | 1010.7 |
| 20260506191504 | 85 | 180 | 2.0 | 7.0 | 0.00 | 0.02 | 0.02 | 80 | 1010.8 |
| 20260506191003 | 84 | 169 | 1.0 | 7.0 | 0.00 | 0.02 | 0.02 | 81 | 1010.8 |
| 20260506190502 | 84 | 186 | 1.0 | 7.0 | 0.00 | 0.02 | 0.02 | 81 | 1011.0 |
| 20260506190001 | 84 | 188 | 2.0 | 6.0 | 0.00 | 0.02 | 0.02 | 81 | 1011.1 |
| 20260506185501 | 84 | 194 | 3.0 | 7.0 | 0.00 | 0.02 | 0.02 | 81 | 1011.0 |
| 20260506185000 | 84 | 182 | 2.0 | 7.0 | 0.00 | 0.02 | 0.02 | 82 | 1011.1 |
| 20260506184600 | 84 | 176 | 3.0 | 10.0 | 0.00 | 0.02 | 0.02 | 81 | 1011.1 |
| 20260506184059 | 84 | 144 | 4.0 | 10.0 | 0.00 | 0.02 | 0.02 | 82 | 1011.1 |
| 20260506183558 | 83 | 133 | 0.0 | 3.0 | 0.00 | 0.02 | 0.02 | 84 | 1011.2 |
| 20260506183105 | 83 | 113 | 0.0 | 6.0 | 0.00 | 0.02 | 0.02 | 84 | 1011.3 |
| 20260506182555 | 82 | 148 | 2.0 | 6.0 | 0.00 | 0.02 | 0.02 | 84 | 1011.3 |
| 20260506182055 | 82 | 172 | 2.0 | 5.0 | 0.00 | 0.02 | 0.02 | 84 | 1011.5 |
| 20260506181558 | 82 | 166 | 2.0 | 7.0 | 0.00 | 0.02 | 0.02 | 85 | 1011.6 |
| 20260506181054 | 82 | 183 | 3.0 | 7.0 | 0.00 | 0.02 | 0.02 | 84 | 1011.7 |
| 20260506180554 | 82 | 123 | 0.0 | 3.0 | 0.00 | 0.02 | 0.02 | 86 | 1011.9 |
| 20260506180053 | 82 | 120 | 0.0 | 7.0 | 0.00 | 0.02 | 0.02 | 85 | 1012.0 |
| 20260506175552 | 82 | 157 | 3.0 | 7.0 | 0.00 | 0.02 | 0.02 | 85 | 1012.1 |
| 20260506175056 | 82 | 155 | 2.0 | 5.0 | 0.00 | 0.02 | 0.02 | 85 | 1012.1 |
| 20260506174552 | 81 | 164 | 2.0 | 6.0 | 0.00 | 0.02 | 0.02 | 86 | 1012.2 |
| 20260506174052 | 81 | 96 | 1.0 | 5.0 | 0.00 | 0.02 | 0.02 | 87 | 1012.4 |
| 20260506173550 | 81 | 163 | 2.0 | 8.0 | 0.00 | 0.02 | 0.02 | 87 | 1012.4 |
| 20260506173050 | 81 | 158 | 3.0 | 8.0 | 0.00 | 0.02 | 0.02 | 87 | 1012.5 |
| 20260506172548 | 81 | 179 | 3.0 | 6.0 | 0.00 | 0.02 | 0.02 | 88 | 1012.5 |
| 20260506172047 | 81 | 200 | 2.0 | 6.0 | 0.00 | 0.02 | 0.02 | 89 | 1012.5 |
| 20260506171555 | 80 | 92 | 1.0 | 6.0 | 0.00 | 0.02 | 0.02 | 89 | 1012.6 |
| 20260506171046 | 80 | 190 | 1.0 | 6.0 | 0.02 | 0.02 | 0.02 | 90 | 1012.7 |
| 20260506170545 | 79 | 160 | 2.0 | 7.0 | 0.02 | 0.02 | 0.02 | 91 | 1012.7 |
| 20260506170047 | 79 | 188 | 0.0 | 7.0 | 0.02 | 0.02 | 0.02 | 91 | 1012.6 |
| 20260506165543 | 79 | 167 | 0.0 | 3.0 | 0.02 | 0.02 | 0.02 | 92 | 1012.7 |
| 20260506165043 | 79 | 172 | 0.0 | 5.0 | 0.02 | 0.02 | 0.02 | 91 | 1012.7 |
| 20260506164543 | 79 | 173 | 2.0 | 5.0 | 0.02 | 0.02 | 0.02 | 91 | 1012.9 |
| 20260506164042 | 79 | 177 | 0.0 | 4.0 | 0.02 | 0.02 | 0.02 | 91 | 1012.7 |
| 20260506163542 | 79 | 177 | 1.0 | 4.0 | 0.02 | 0.02 | 0.02 | 91 | 1012.7 |
| 20260506163045 | 79 | 173 | 2.0 | 4.0 | 0.02 | 0.02 | 0.02 | 90 | 1012.7 |
| 20260506162541 | 79 | 149 | 1.0 | 5.0 | 0.02 | 0.02 | 0.02 | 89 | 1012.6 |
| 20260506162043 | 79 | 178 | 1.0 | 7.0 | 0.02 | 0.02 | 0.02 | 88 | 1012.5 |
| 20260506161540 | 80 | 161 | 2.0 | 7.0 | 0.01 | 0.01 | 0.01 | 87 | 1012.5 |
| 20260506161039 | 80 | 167 | 2.0 | 7.0 | 0.00 | 0.00 | 0.00 | 87 | 1012.2 |
| 20260506160540 | 80 | 211 | 1.0 | 7.0 | 0.00 | 0.00 | 0.00 | 87 | 1012.4 |
| 20260506160039 | 80 | 153 | 2.0 | 8.0 | 0.00 | 0.00 | 0.00 | 87 | 1012.4 |
| 20260506155538 | 80 | 173 | 2.0 | 8.0 | 0.00 | 0.00 | 0.00 | 87 | 1012.4 |
| 20260506155041 | 80 | 171 | 2.0 | 8.0 | 0.00 | 0.00 | 0.00 | 87 | 1012.3 |
| 20260506154537 | 80 | 166 | 2.0 | 6.0 | 0.00 | 0.00 | 0.00 | 87 | 1012.3 |
| 20260506154037 | 80 | 163 | 1.0 | 5.0 | 0.00 | 0.00 | 0.00 | 87 | 1012.2 |
| 20260506153536 | 80 | 189 | 2.0 | 4.0 | 0.00 | 0.00 | 0.00 | 87 | 1012.2 |
| 20260506153036 | 80 | 152 | 2.0 | 5.0 | 0.00 | 0.00 | 0.00 | 87 | 1012.2 |
| 20260506152535 | 80 | 153 | 2.0 | 9.0 | 0.00 | 0.00 | 0.00 | 87 | 1012.1 |
| 20260506152035 | 80 | 143 | 3.0 | 9.0 | 0.00 | 0.00 | 0.00 | 87 | 1011.8 |
| 20260506151537 | 80 | 169 | 2.0 | 5.0 | 0.00 | 0.00 | 0.00 | 87 | 1011.8 |
| 20260506151034 | 80 | 159 | 0.0 | 4.0 | 0.00 | 0.00 | 0.00 | 87 | 1011.7 |
| 20260506150532 | 80 | 171 | 2.0 | 7.0 | 0.00 | 0.00 | 0.00 | 87 | 1011.8 |
| 20260506150032 | 79 | 152 | 2.0 | 7.0 | 0.00 | 0.00 | 0.00 | 87 | 1011.7 |
| 20260506145533 | 79 | 169 | 1.0 | 10.0 | 0.00 | 0.00 | 0.00 | 88 | 1011.7 |
| 20260506145030 | 79 | 166 | 4.0 | 10.0 | 0.00 | 0.00 | 0.00 | 88 | 1011.5 |
| 20260506144528 | 79 | 175 | 2.0 | 9.0 | 0.00 | 0.00 | 0.00 | 88 | 1011.5 |
| 20260506144027 | 79 | 97 | 2.0 | 9.0 | 0.00 | 0.00 | 0.00 | 89 | 1011.3 |
| 20260506143527 | 79 | 157 | 3.0 | 7.0 | 0.00 | 0.00 | 0.00 | 89 | 1011.2 |
| 20260506143025 | 79 | 132 | 1.0 | 8.0 | 0.00 | 0.00 | 0.00 | 90 | 1011.3 |
| 20260506142524 | 79 | 200 | 2.0 | 8.0 | 0.00 | 0.00 | 0.00 | 90 | 1011.2 |
| 20260506142023 | 78 | 211 | 2.0 | 7.0 | 0.00 | 0.00 | 0.00 | 90 | 1011.3 |
| 20260506141523 | 78 | 167 | 3.0 | 9.0 | 0.00 | 0.00 | 0.00 | 90 | 1011.3 |
| 20260506141023 | 78 | 167 | 2.0 | 7.0 | 0.00 | 0.00 | 0.00 | 91 | 1011.4 |
| 20260506140525 | 78 | 151 | 2.0 | 9.0 | 0.00 | 0.00 | 0.00 | 92 | 1011.4 |
| 20260506140027 | 78 | 124 | 2.0 | 9.0 | 0.00 | 0.00 | 0.00 | 92 | 1011.4 |
| 20260506135521 | 78 | 125 | 1.0 | 8.0 | 0.00 | 0.00 | 0.00 | 93 | 1011.4 |
| 20260506135020 | 77 | 178 | 3.0 | 8.0 | 0.00 | 0.00 | 0.00 | 93 | 1011.4 |
| 20260506134520 | 77 | 173 | 2.0 | 7.0 | 0.00 | 0.00 | 0.00 | 93 | 1011.5 |
| 20260506134019 | 77 | 150 | 0.0 | 5.0 | 0.00 | 0.00 | 0.00 | 93 | 1011.4 |
| 20260506133518 | 77 | 155 | 0.0 | 5.0 | 0.00 | 0.00 | 0.00 | 93 | 1011.5 |
| 20260506133038 | 77 | 186 | 2.0 | 4.0 | 0.00 | 0.00 | 0.00 | 93 | 1011.5 |
| 20260506132519 | 77 | 153 | 0.0 | 4.0 | 0.00 | 0.00 | 0.00 | 94 | 1011.7 |
| 20260506132018 | 76 | 172 | 1.0 | 7.0 | 0.00 | 0.00 | 0.00 | 94 | 1011.6 |
| 20260506131523 | 76 | 171 | 3.0 | 7.0 | 0.00 | 0.00 | 0.00 | 94 | 1011.6 |
| 20260506131018 | 76 | 159 | 1.0 | 4.0 | 0.00 | 0.00 | 0.00 | 94 | 1011.6 |
| 20260506130518 | 76 | 168 | 1.0 | 4.0 | 0.00 | 0.00 | 0.00 | 94 | 1011.7 |
| 20260506130020 | 76 | 115 | 0.0 | 5.0 | 0.00 | 0.00 | 0.00 | 94 | 1011.8 |
| 20260506125517 | 76 | 151 | 1.0 | 6.0 | 0.00 | 0.00 | 0.00 | 94 | 1011.7 |
| 20260506125018 | 76 | 130 | 2.0 | 7.0 | 0.00 | 0.00 | 0.00 | 94 | 1011.5 |
| 20260506124516 | 76 | 166 | 2.0 | 7.0 | 0.00 | 0.00 | 0.00 | 94 | 1011.7 |
| 20260506124015 | 76 | 142 | 1.0 | 5.0 | 0.00 | 0.00 | 0.00 | 94 | 1011.5 |
| 20260506123515 | 76 | 179 | 2.0 | 5.0 | 0.00 | 0.00 | 0.00 | 94 | 1011.6 |
| 20260506123014 | 76 | 159 | 1.0 | 8.0 | 0.00 | 0.00 | 0.00 | 94 | 1011.5 |
| 20260506122514 | 76 | 196 | 3.0 | 8.0 | 0.00 | 0.00 | 0.00 | 94 | 1011.4 |
| 20260506122013 | 76 | 161 | 2.0 | 5.0 | 0.00 | 0.00 | 0.00 | 94 | 1011.4 |
| 20260506121513 | 76 | 184 | 0.0 | 5.0 | 0.00 | 0.00 | 0.00 | 94 | 1011.3 |
| 20260506121017 | 76 | 144 | 2.0 | 5.0 | 0.00 | 0.00 | 0.00 | 94 | 1011.3 |
| 20260506120513 | 76 | 178 | 2.0 | 3.0 | 0.00 | 0.00 | 0.00 | 94 | 1011.2 |
| 20260506120018 | 76 | 163 | 0.0 | 5.0 | 0.00 | 0.00 | 0.00 | 94 | 1011.1 |
| 20260506115516 | 76 | 178 | 1.0 | 4.0 | 0.00 | 0.00 | 0.00 | 94 | 1011.1 |
| 20260506115013 | 76 | 175 | 2.0 | 6.0 | 0.00 | 0.00 | 0.00 | 94 | 1011.0 |
| 20260506114511 | 76 | 171 | 2.0 | 6.0 | 0.00 | 0.00 | 0.00 | 94 | 1010.9 |
| 20260506114013 | 75 | 188 | 2.0 | 5.0 | 0.00 | 0.00 | 0.00 | 94 | 1010.7 |
| 20260506113511 | 75 | 173 | 1.0 | 6.0 | 0.00 | 0.00 | 0.00 | 94 | 1010.8 |
| 20260506113011 | 75 | 173 | 1.0 | 8.0 | 0.00 | 0.00 | 0.00 | 94 | 1010.8 |
| 20260506112510 | 75 | 167 | 2.0 | 8.0 | 0.00 | 0.00 | 0.00 | 94 | 1010.5 |
| 20260506112011 | 75 | 133 | 2.0 | 5.0 | 0.00 | 0.00 | 0.00 | 94 | 1010.5 |
| 20260506111510 | 75 | 173 | 2.0 | 5.0 | 0.00 | 0.00 | 0.00 | 94 | 1010.5 |
| 20260506111010 | 75 | 169 | 1.0 | 3.0 | 0.00 | 0.00 | 0.00 | 94 | 1010.4 |
| 20260506110516 | 75 | 174 | 1.0 | 4.0 | 0.00 | 0.00 | 0.00 | 94 | 1010.3 |
| 20260506110012 | 75 | 168 | 0.0 | 4.0 | 0.00 | 0.00 | 0.00 | 94 | 1010.2 |
| 20260506105511 | 75 | 144 | 0.0 | 4.0 | 0.00 | 0.00 | 0.00 | 94 | 1010.3 |
| 20260506105010 | 75 | 175 | 1.0 | 5.0 | 0.00 | 0.00 | 0.00 | 94 | 1010.2 |
| 20260506104508 | 75 | 188 | 2.0 | 6.0 | 0.00 | 0.00 | 0.00 | 94 | 1010.2 |
| 20260506104009 | 75 | 169 | 1.0 | 6.0 | 0.00 | 0.00 | 0.00 | 94 | 1010.3 |
| 20260506103508 | 75 | 200 | 1.0 | 7.0 | 0.00 | 0.00 | 0.00 | 94 | 1010.3 |
| 20260506103008 | 75 | 144 | 2.0 | 6.0 | 0.00 | 0.00 | 0.00 | 94 | 1010.3 |
| 20260506102509 | 75 | 179 | 2.0 | 8.0 | 0.00 | 0.00 | 0.00 | 94 | 1010.3 |
| 20260506102009 | 75 | 172 | 5.0 | 8.0 | 0.00 | 0.00 | 0.00 | 94 | 1010.3 |
| 20260506101508 | 75 | 165 | 5.0 | 7.0 | 0.00 | 0.00 | 0.00 | 94 | 1010.3 |
| 20260506101010 | 75 | 187 | 4.0 | 9.0 | 0.00 | 0.00 | 0.00 | 94 | 1010.1 |
| 20260506100507 | 75 | 169 | 4.0 | 8.0 | 0.00 | 0.00 | 0.00 | 94 | 1010.1 |
| 20260506100007 | 75 | 171 | 4.0 | 8.0 | 0.00 | 0.00 | 0.00 | 94 | 1010.2 |
| 20260506095506 | 75 | 179 | 3.0 | 7.0 | 0.00 | 0.00 | 0.00 | 93 | 1010.2 |
| 20260506095006 | 75 | 196 | 1.0 | 7.0 | 0.00 | 0.00 | 0.00 | 93 | 1010.0 |
| 20260506094504 | 76 | 185 | 1.0 | 6.0 | 0.00 | 0.00 | 0.00 | 93 | 1009.9 |
| 20260506094004 | 75 | 155 | 2.0 | 8.0 | 0.00 | 0.00 | 0.00 | 93 | 1009.7 |
| 20260506093505 | 76 | 167 | 3.0 | 8.0 | 0.00 | 0.00 | 0.00 | 93 | 1009.9 |
| 20260506093003 | 76 | 173 | 3.0 | 8.0 | 0.00 | 0.00 | 0.00 | 92 | 1009.9 |
| 20260506092507 | 76 | 183 | 2.0 | 6.0 | 0.00 | 0.00 | 0.00 | 92 | 1009.9 |
| 20260506092003 | 76 | 171 | 1.0 | 6.0 | 0.00 | 0.00 | 0.00 | 92 | 1009.9 |
| 20260506091501 | 76 | 156 | 1.0 | 7.0 | 0.00 | 0.00 | 0.00 | 92 | 1009.9 |
| 20260506091002 | 76 | 161 | 2.0 | 7.0 | 0.00 | 0.00 | 0.00 | 92 | 1010.1 |
| 20260506090500 | 76 | 149 | 2.0 | 9.0 | 0.00 | 0.00 | 0.00 | 92 | 1010.1 |
| 20260506085559 | 76 | 156 | 4.0 | 10.0 | 0.00 | 0.00 | 0.00 | 92 | 1010.2 |
| 20260506085059 | 76 | 164 | 4.0 | 10.0 | 0.00 | 0.00 | 0.00 | 91 | 1010.2 |
| 20260506084600 | 76 | 163 | 3.0 | 7.0 | 0.00 | 0.00 | 0.00 | 91 | 1010.2 |
| 20260506084058 | 76 | 157 | 2.0 | 9.0 | 0.00 | 0.00 | 0.00 | 91 | 1010.2 |
| 20260506083557 | 76 | 189 | 4.0 | 9.0 | 0.00 | 0.00 | 0.00 | 91 | 1010.3 |
| 20260506083100 | 76 | 176 | 4.0 | 8.0 | 0.00 | 0.00 | 0.00 | 92 | 1010.3 |
| 20260506082556 | 77 | 148 | 3.0 | 7.0 | 0.00 | 0.00 | 0.00 | 91 | 1010.3 |